Regional Weather Roundup
Issued by NWS

Home | Current Version | Previous Version | Graphics & Text | Print | Product List | Glossary On
Versions: 1 2 3 4 5 6 7 8 9 10 11 12 13 14 15 16 17 18 19 20 21 22 23 24 25 26 27 28 29 30 31 32 33 34 35 36 37 38 39 40 41 42 43 44 45 46 47 48 49 50
000
ASUS45 KCYS 262210
RWRWY

WYOMING REGIONAL WEATHER ROUNDUP
NATIONAL WEATHER SERVICE CHEYENNE WY
300 PM MST THU FEB 26 2015

NOTE:  "FAIR" INDICATES FEW OR NO CLOUDS BELOW 12,000 FEET
WITH NO SIGNIFICANT WEATHER AND/OR OBSTRUCTIONS TO VISIBILITY.

WYZ001-262300-
YELLOWSTONE NATIONAL PARK

CITY           SKY/WX    TMP DP  RH WIND       PRES   REMARKS
LK YELLOWSTONE   N/A     21   1  41 VRB5      29.89S WCI  15
W YELLOWSTONE  NOT AVBL

$$
WYZ002>013-054>058-071-098>099-262300-
NORTHERN WYOMING

CITY           SKY/WX    TMP DP  RH WIND       PRES   REMARKS
JACKSON        PTSUNNY   21  14  73 E6        29.89F WCI  14
CODY           PTSUNNY   12   7  79 N12       30.13F WCI  -2
GREYBULL       CLOUDY    21   5  50 N7        30.20F WCI  12
WORLAND        CLOUDY    18   7  62 SW3       30.18F
SHERIDAN       CLOUDY    11  -1  58 VRB3      30.28F
BUFFALO        CLOUDY     8   0  69 N5        30.20F WCI   0
GILLETTE       FAIR      10  -2  58 NE5       30.25F WCI   2
HULETT         FAIR      10  -2  56 NE8       30.28F WCI  -1
NEWCASTLE      FAIR      16  -4  41 NW14      30.24F WCI   1

$$
WYZ014>020-022>026-101>103-262300-
CENTRAL WYOMING

CITY           SKY/WX    TMP DP  RH WIND       PRES   REMARKS
BIG PINEY      CLOUDY    24  14  65 SE6       29.90F WCI  17
PINEDALE       CLOUDY    23  14  68 E5        29.90F WCI  17
DUBOIS         FLURRIES  12   5  73 SE14G20   29.94S WCI  -3
LANDER         CLOUDY    15   7  70 E9        30.06F WCI   3
RIVERTON       CLOUDY    14   5  67 E13       30.08F WCI   0
CASPER         CLOUDY    12   1  61 NE12      30.14S WCI  -2
DOUGLAS        CLOUDY    14   1  56 VRB3      30.19F

$$
WYZ021-027>030-104>119-262300-
SOUTHERN WYOMING

CITY           SKY/WX    TMP DP  RH WIND       PRES   REMARKS
EVANSTON       HVY SNOW  25  22  88 E12       29.84F VSB 1/4 WCI  14
KEMMERER       LGT SNOW  27  19  74 E8        29.87  WCI  18
FORT BRIDGER   LGT SNOW  26  23  87 NE5       29.90F WCI  20
ROCK SPRINGS   LGT SNOW  21  15  78 NE14G23   29.91F WCI   8
DIXON          LGT SNOW  29  18  62 NW6       29.91F WCI  23
RAWLINS        CLOUDY    20   9  62 NE18      29.95F WCI   5
SARATOGA       CLOUDY    23  12  63 N7        29.92F WCI  15
LARAMIE        CLOUDY    12   3  67 S16       29.94  WCI  -5
CHEYENNE       LGT SNOW  11   4  73 E9        30.07F VSB 3/4 WCI  -2
TORRINGTON     CLOUDY    18   3  52 NE7       30.23F WCI   9
PINE BLUFFS    LGT SNOW  14   9  79 E6        30.17S WCI   5

$$


USA.gov is the U.S. government's official web portal to all federal, state and local government web resources and services.